GW7302 Weather Reports


time (UTC)temp
F
wind
direction
speed
knots
gust
knots
rain 1hr
in
rain 24hr
in
rain mn
in
humidity
%
barometer
mb
20260506181522 63 207 1.7 7.0 0.00 0.13 0.13 86 1009.4
20260506180025 62 227 2.6 8.7 0.00 0.13 0.13 85 1009.5
20260506174522 62 211 2.6 6.1 0.00 0.13 0.13 86 1009.6
20260506173023 62 190 1.7 7.8 0.00 0.13 0.13 86 1009.4
20260506171525 62 252 1.7 7.8 0.00 0.13 0.13 86 1009.5
20260506170035 62 185 1.7 10.4 0.00 0.13 0.13 86 1009.7
20260506164528 62 199 1.7 5.2 0.01 0.13 0.13 87 1009.7
20260506163024 62 215 1.7 7.0 0.03 0.13 0.13 87 1009.8
20260506161528 62 125 2.6 7.0 0.04 0.13 0.13 88 1009.3
20260506160026 62 174 1.7 4.3 0.06 0.13 0.13 87 1009.9
20260506154529 62 120 1.7 7.0 0.06 0.12 0.12 87 1010.6
20260506153026 62 179 1.7 7.0 0.05 0.10 0.10 87 1010.6
20260506151533 62 217 0.9 7.0 0.07 0.09 0.09 87 1010.9
20260506150011 62 141 0.0 7.8 0.07 0.07 0.07 86 1010.7
20260506144511 62 177 0.0 4.3 0.06 0.06 0.06 87 1010.7
20260506143019 62 144 0.9 5.2 0.05 0.05 0.05 86 1010.5
20260506141516 63 196 0.9 5.2 0.02 0.02 0.02 84 1010.5
20260506140022 63 190 0.9 5.2 0.00 0.00 0.00 81 1010.6
20260506134517 64 140 1.7 6.1 0.00 0.00 0.00 79 1010.5
20260506133035 65 240 0.9 3.5 0.00 0.00 0.00 79 1010.6
20260506131525 64 157 0.0 4.3 0.00 0.00 0.00 78 1010.7
20260506130022 65 155 0.9 4.3 0.00 0.00 0.00 77 1010.9
20260506124520 65 219 1.7 5.2 0.00 0.00 0.00 76 1010.9
20260506123024 66 248 1.7 4.3 0.00 0.00 0.00 74 1010.9
20260506121525 66 244 2.6 4.3 0.00 0.00 0.00 73 1010.7
20260506120034 66 186 2.6 5.2 0.00 0.00 0.00 72 1010.4
20260506114526 66 167 4.3 7.0 0.00 0.00 0.00 72 1010.6
20260506113026 66 225 0.0 5.2 0.00 0.00 0.00 72 1010.2
20260506111506 66 299 0.9 6.1 0.00 0.00 0.00 72 1010.2
20260506110008 66 165 0.9 8.7 0.00 0.00 0.00 71 1010.3
20260506104508 66 226 2.6 7.0 0.00 0.00 0.00 71 1009.9
20260506103008 66 246 0.0 7.0 0.00 0.00 0.00 71 1009.8
20260506101509 66 170 1.7 9.6 0.00 0.00 0.00 70 1009.8
20260506100023 66 229 2.6 7.0 0.00 0.00 0.00 70 1009.7
20260506094516 67 222 2.6 8.7 0.00 0.00 0.00 70 1009.9
20260506093019 67 133 0.9 9.6 0.00 0.00 0.00 69 1009.7
20260506091518 67 202 4.3 7.8 0.00 0.00 0.00 69 1009.8
20260506090020 67 123 3.5 7.8 0.00 0.00 0.00 68 1009.8
20260506084532 67 187 2.6 8.7 0.00 0.00 0.00 67 1009.8
20260506083023 68 219 0.9 6.1 0.00 0.00 0.00 66 1009.9
20260506081526 68 16 0.9 6.1 0.00 0.00 0.00 66 1009.9
20260506073026 68 204 3.5 12.2 0.00 0.00 0.00 63 1009.8
20260506071526 68 246 2.6 7.8 0.00 0.00 0.00 62 1010.0
20260506061526 69 127 2.6 9.6 0.00 0.00 0.00 57 1010.5
20260506044519 70 130 2.6 10.4 0.00 0.00 0.00 54 1011.1
20260506043020 70 75 0.0 5.2 0.00 0.00 0.00 1011.2
20260506041517 70 226 2.6 7.0 0.00 0.00 0.00 1011.3
20260506040034 70 164 0.9 7.8 0.00 0.00 0.00 1011.1
20260506034523 70 205 0.0 6.1 0.00 0.00 0.00 1011.1
20260506033022 70 211 1.7 4.3 0.00 0.00 0.00 1011.1
20260506031522 70 106 1.7 5.2 0.00 0.00 0.00 52 1011.0
20260506030024 70 159 0.9 6.1 0.00 0.00 0.00 1011.0
20260506024528 70 161 0.9 4.3 0.00 0.00 0.00 51 1010.9
20260506023028 71 111 0.9 7.0 0.00 0.00 0.00 50 1011.0
20260506021532 72 186 0.9 5.2 0.00 0.00 0.00 49 1011.0
20260506020004 71 230 3.5 9.6 0.00 0.00 0.00 49 1010.9
20260506014504 71 252 0.0 2.6 0.00 0.00 0.00 50 1010.8
20260506013006 73 194 1.7 7.0 0.00 0.00 0.00 46 1010.7
20260506011507 73 166 0.0 6.1 0.00 0.00 0.00 44 1010.5
20260506010021 74 147 0.9 6.1 0.00 0.00 0.00 44 1010.4
20260506004510 75 134 0.9 6.1 0.00 0.00 0.00 42 1010.2
20260506003011 76 241 2.6 9.6 0.00 0.00 0.00 41 1010.1
20260506001512 75 194 2.6 6.1 0.00 0.00 0.00 42 1010.0
20260506000013 76 177 1.7 7.0 0.00 0.00 0.00 40 1009.7
20260505234531 77 163 2.6 10.4 0.00 0.00 0.00 40 1009.7
20260505233014 77 229 1.7 9.6 0.00 0.00 0.00 40 1009.4
20260505231517 78 178 5.2 12.2 0.00 0.00 0.00 39 1009.6
20260505230020 78 211 7.0 11.3 0.00 0.00 0.00 39 1009.6
20260505224522 78 192 2.6 11.3 0.00 0.00 0.00 40 1009.5
20260505223022 79 234 4.3 12.2 0.00 0.00 0.00 39 1009.5
20260505221524 79 250 5.2 11.3 0.00 0.00 0.00 38 1009.5
20260505220026 80 242 6.1 20.9 0.00 0.00 0.00 38 1009.5
20260505214551 80 222 4.3 14.8 0.00 0.00 0.00 38 1009.2
20260505213026 80 192 6.1 14.8 0.00 0.00 0.00 38 1009.4
20260505211524 81 221 5.2 13.9 0.00 0.00 0.00 37 1009.0
20260505210025 81 194 4.3 13.9 0.00 0.00 0.00 38 1009.1
20260505204508 81 126 5.2 12.2 0.00 0.00 0.00 36 1009.2
20260505203016 80 209 5.2 12.2 0.00 0.00 0.00 40 1009.3
20260505201509 80 217 6.1 17.4 0.00 0.00 0.00 40 1009.4
20260505200009 81 153 6.1 14.8 0.00 0.00 0.00 38 1009.4
20260505194514 81 134 6.1 13.9 0.00 0.00 0.00 37 1009.5
20260505193013 81 211 4.3 14.8 0.00 0.00 0.00 36 1009.6
20260505191515 81 182 8.7 20.0 0.00 0.00 0.00 37 1009.7
20260505190015 81 204 5.2 18.2 0.00 0.00 0.00 38 1009.8
20260505184514 82 194 3.5 13.0 0.00 0.00 0.00 38 1010.0
20260505183018 81 304 5.2 15.6 0.00 0.00 0.00 38 1010.1